Regional Weather Roundup
Issued by NWS Albany, NY

Home | Current Version | Previous Version | Graphics & Text | Print | Product List | Glossary Off
Versions: 1 2 3 4 5 6 7 8 9 10 11 12 13 14 15 16 17 18 19 20 21 22 23 24 25 26 27 28 29 30 31 32 33 34 35 36 37 38 39 40 41 42 43 44 45 46 47 48 49 50

000
ASUS41 KALY 301510
RWRALY

NEW YORK STATE HOURLY WEATHER ROUNDUP
NATIONAL WEATHER SERVICE ALBANY NY
1100 AM EDT SAT MAY 30 2015

NOTE: "FAIR" INDICATES FEW OR NO CLOUDS BELOW 12,000 FEET WITH NO
SIGNIFICANT WEATHER AND/OR NO OBSTRUCTIONS TO VISIBILITY.

NYZ032-033-038>043-046>054-057>066-NYZ062>081-301600-
EAST


CITY           SKY/WX    TMP DP  RH WIND       PRES   REMARKS
ALBANY         PTSUNNY   79  64  60 S13G21    30.10F
GLENS FALLS    MOSUNNY   79  64  60 S16G23    30.08F
POUGHKEEPSIE   SUNNY     81  64  56 SE7       30.14F
NEWBURGH       MOSUNNY   79  66  65 S6        30.18F
MONTGOMERY     MOSUNNY   80  68  66 SW12      30.15F
WHITE PLAINS   MOSUNNY   77  65  66 S9        30.19F
ISLIP          PTSUNNY   74  65  73 S15       30.20F
NEW YORK CITY  MOSUNNY   79  64  60 S12       30.18F
CENTRAL PARK   SUNNY     77  65  66 VRB5      30.21F
$$

NYZ005>009-017-018-044>046-055-056-301600-
CENTRAL


CITY           SKY/WX    TMP DP  RH WIND       PRES   REMARKS
FULTON         MOSUNNY   82  66  58 SW9       30.02F
SYRACUSE       PTSUNNY   84  67  56 S13       30.03F
ROME           MOSUNNY   79  67  66 S9        30.06F
ELMIRA         PTSUNNY   82  66  58 SW14      30.08S
BINGHAMTON     MOSUNNY   75  65  70 SW10      30.13F
MONTICELLO     PTSUNNY   75  66  73 S9        30.19S
$$

NYZ026>034-041>043-301600-
NORTH


CITY           SKY/WX    TMP DP  RH WIND       PRES   REMARKS
WATERTOWN      MOSUNNY   82  64  54 SW21G29   29.99S
FORT DRUM      NOT AVBL
MASSENA        MOSUNNY   83  66  56 SW21G29   29.93F
SARANAC LAKE   PTSUNNY   78  64  61 SW20G29   30.03F
PLATTSBURGH    PTSUNNY   75  62  64 SE16G22   29.98F
$$

NYZ001>004-010>016-019>021-301600-
WEST


CITY           SKY/WX    TMP DP  RH WIND       PRES   REMARKS
NIAGARA FALLS  PTSUNNY   79  64  60 SW21G32   30.00S
BUFFALO        PTSUNNY   80  64  58 SW22G31   30.01F
DUNKIRK        MOSUNNY   79  65  62 SW12      30.03F
JAMESTOWN      PTSUNNY   75  64  69 SW14      30.11S
WELLSVILLE     MOSUNNY   77  62  59 SW12G20   30.14S
ROCHESTER      PTSUNNY   82  66  58 W18       30.01S
PENN YAN       MOSUNNY   79  65  62 S10       30.06F
$$

             KEY
       WCI = WIND CHILL INDEX
       VSB = VISIBILITY
       HX  = HEAT INDEX
$$



USA.gov is the U.S. government's official web portal to all federal, state and local government web resources and services.